,,Stat6,,Stat2,,Stat8,,Stat9,,Stat10,,Wind1,,Wind1,
time,status,PA1M_AVG,status,PR1M_SUM,status,RH1M_AVG,status,SR1M_AVG,status,TA1M_AVG,status,W1dAve1m,status,W1sAve1m,
2004-09-27, 00:00:00,VALID,918.034,VALID,0,VALID,99.999,VALID,0.0169808,VALID,19.3353,VALID,67,VALID,1.12942,
2004-09-27, 00:01:00,VALID,918.012,VALID,0,VALID,100,VALID,0.0169808,VALID,19.3157,VALID,119,VALID,0.709985,
2004-09-27, 00:02:00,VALID,917.992,VALID,0,VALID,100,VALID,0.0339617,VALID,19.3122,VALID,119,VALID,1.00586,
2004-09-27, 00:03:00,VALID,917.986,VALID,0,VALID,100,VALID,0,VALID,19.3227,VALID,127,VALID,0.678089,
2004-09-27, 00:04:00,VALID,917.975,VALID,0,VALID,100,VALID,0,VALID,19.3095,VALID,122,VALID,1.7996,
2004-09-27, 00:05:00,VALID,917.961,VALID,0,VALID,100,VALID,0,VALID,19.2993,VALID,120,VALID,0.788504,
2004-09-27, 00:06:00,VALID,917.946,VALID,0,VALID,100,VALID,0,VALID,19.3132,VALID,141,VALID,1.35249,
2004-09-27, 00:07:00,VALID,917.931,VALID,0,VALID,100,VALID,0.0169808,VALID,19.309,VALID,144,VALID,1.39565,
2004-09-27, 00:08:00,VALID,917.924,VALID,0,VALID,100,VALID,-0.0169808,VALID,19.3093,VALID,141,VALID,0.801339,
2004-09-27, 00:09:00,VALID,917.92,VALID,0.2,VALID,100,VALID,0,VALID,19.3224,VALID,149,VALID,0.713246,
2004-09-27, 00:10:00,VALID,917.905,VALID,0,VALID,100,VALID,0,VALID,19.3261,VALID,147,VALID,0.877604,
2004-09-27, 00:11:00,VALID,917.907,VALID,0,VALID,100,VALID,0,VALID,19.3286,VALID,153,VALID,0.345022,
2004-09-27, 00:12:00,VALID,917.896,VALID,0,VALID,100,VALID,0,VALID,19.3321,VALID,151,VALID,0.538336,
2004-09-27, 00:13:00,VALID,917.892,VALID,0.2,VALID,100,VALID,0,VALID,19.3356,VALID,159,VALID,0.798473,
2004-09-27, 00:14:00,VALID,917.876,VALID,0,VALID,100,VALID,0,VALID,19.3323,VALID,154,VALID,0.746595,
2004-09-27, 00:15:00,VALID,917.883,VALID,0,VALID,100,VALID,0,VALID,19.3386,VALID,177,VALID,0.549762,
2004-09-27, 00:16:00,VALID,917.869,VALID,0.2,VALID,100,VALID,0,VALID,19.3289,VALID,168,VALID,0.385789,
2004-09-27, 00:17:00,VALID,917.851,VALID,0,VALID,100,VALID,0,VALID,19.3358,VALID,152,VALID,0.65024,
2004-09-27, 00:18:00,VALID,917.851,VALID,0,VALID,100,VALID,0.0169808,VALID,19.3222,VALID,143,VALID,0.197798,
2004-09-27, 00:19:00,VALID,917.833,VALID,0,VALID,100,VALID,0,VALID,19.3187,VALID,149,VALID,0.355378,
2004-09-27, 00:20:00,VALID,917.852,VALID,0.2,VALID,100,VALID,0.0169808,VALID,19.3197,VALID,161,VALID,0.268403,
2004-09-27, 00:21:00,VALID,917.847,VALID,0,VALID,100,VALID,0.0169808,VALID,19.3189,VALID,153,VALID,0.75,
2004-09-27, 00:22:00,VALID,917.859,VALID,0,VALID,100,VALID,0,VALID,19.2998,VALID,153,VALID,0.604725,
2004-09-27, 00:23:00,VALID,917.852,VALID,0,VALID,100,VALID,0.0339617,VALID,19.2963,VALID,160,VALID,0.822266,
2004-09-27, 00:24:00,VALID,917.853,VALID,0,VALID,100,VALID,0.0169808,VALID,19.3033,VALID,154,VALID,0.652699,
2004-09-27, 00:25:00,VALID,917.851,VALID,0,VALID,100,VALID,0,VALID,19.2998,VALID,164,VALID,0.85883,
2004-09-27, 00:26:00,VALID,917.836,VALID,0,VALID,100,VALID,0,VALID,19.2802,VALID,151,VALID,0.601918,
2004-09-27, 00:27:00,VALID,917.831,VALID,0.2,VALID,100,VALID,0.0339617,VALID,19.2869,VALID,152,VALID,0.929878,
2004-09-27, 00:28:00,VALID,917.824,VALID,0,VALID,100,VALID,0.0339617,VALID,19.2867,VALID,162,VALID,0.387962,
2004-09-27, 00:29:00,VALID,917.807,VALID,0,VALID,100,VALID,0.0339617,VALID,19.2909,VALID,141,VALID,0.495313,
2004-09-27, 00:30:00,VALID,917.801,VALID,0,VALID,100,VALID,0,VALID,19.2772,VALID,129,VALID,0.291667,
2004-09-27, 00:31:00,VALID,917.788,VALID,0,VALID,100,VALID,0.0339617,VALID,19.274,VALID,127,VALID,0.0325521,
2004-09-27, 00:32:00,VALID,917.778,VALID,0,VALID,100,VALID,0,VALID,19.2775,VALID,127,VALID,0.000381098,
2004-09-27, 00:33:00,VALID,917.755,VALID,0,VALID,100,VALID,0,VALID,19.2745,VALID,112,VALID,0.324219,
2004-09-27, 00:34:00,VALID,917.742,VALID,0,VALID,100,VALID,0.0169808,VALID,19.2611,VALID,78,VALID,0.471037,
2004-09-27, 00:35:00,VALID,917.719,VALID,0,VALID,100,VALID,-0.0169808,VALID,19.2581,VALID,73,VALID,0.604106,
2004-09-27, 00:36:00,VALID,917.707,VALID,0,VALID,100,VALID,0,VALID,19.2611,VALID,56,VALID,0.711664,
2004-09-27, 00:37:00,VALID,917.695,VALID,0,VALID,100,VALID,0,VALID,19.2613,VALID,39,VALID,1.05,
2004-09-27, 00:38:00,VALID,917.684,VALID,0,VALID,100,VALID,0.0169808,VALID,19.2683,VALID,36,VALID,1.2926,
2004-09-27, 00:39:00,VALID,917.666,VALID,0.2,VALID,100,VALID,0.0169808,VALID,19.2387,VALID,31,VALID,1.23917,
2004-09-27, 00:40:00,VALID,917.653,VALID,0,VALID,100,VALID,0,VALID,19.2382,VALID,32,VALID,1.01467,
2004-09-27, 00:41:00,VALID,917.661,VALID,0,VALID,100,VALID,0,VALID,19.2124,VALID,39,VALID,0.880269,
2004-09-27, 00:42:00,VALID,917.657,VALID,0,VALID,100,VALID,0,VALID,19.1933,VALID,50,VALID,0.908612,
2004-09-27, 00:43:00,VALID,917.657,VALID,0,VALID,100,VALID,0,VALID,19.1771,VALID,44,VALID,0.925959,
2004-09-27, 00:44:00,VALID,917.648,VALID,0,VALID,100,VALID,0,VALID,19.161,VALID,35,VALID,0.822545,
2004-09-27, 00:45:00,VALID,917.649,VALID,0,VALID,100,VALID,0,VALID,19.1418,VALID,32,VALID,0.600675,
2004-09-27, 00:46:00,VALID,917.642,VALID,0,VALID,100,VALID,0,VALID,19.1485,VALID,25,VALID,0.637386,
2004-09-27, 00:47:00,VALID,917.634,VALID,0,VALID,100,VALID,0.0169808,VALID,19.1391,VALID,23,VALID,0.683594,
2004-09-27, 00:48:00,VALID,917.627,VALID,0,VALID,100,VALID,0,VALID,19.1289,VALID,25,VALID,0.404687,
2004-09-27, 00:49:00,VALID,917.611,VALID,0,VALID,100,VALID,0.0339617,VALID,19.1354,VALID,25,VALID,0.640253,
2004-09-27, 00:50:00,VALID,917.604,VALID,0,VALID,100,VALID,0,VALID,19.1195,VALID,14,VALID,0.761446,
2004-09-27, 00:51:00,VALID,917.602,VALID,0,VALID,100,VALID,0,VALID,19.1195,VALID,10,VALID,0.673363,
2004-09-27, 00:52:00,VALID,917.591,VALID,0,VALID,100,VALID,0,VALID,19.1061,VALID,8,VALID,0.524891,
2004-09-27, 00:53:00,VALID,917.598,VALID,0,VALID,100,VALID,0,VALID,19.1133,VALID,6,VALID,0.801314,
2004-09-27, 00:54:00,VALID,917.588,VALID,0,VALID,100,VALID,-0.0169808,VALID,19.1068,VALID,9,VALID,0.850675,
2004-09-27, 00:55:00,VALID,917.588,VALID,0,VALID,100,VALID,0,VALID,19.0996,VALID,10,VALID,0.830256,
2004-09-27, 00:56:00,VALID,917.58,VALID,0,VALID,100,VALID,0,VALID,19.1163,VALID,13,VALID,1.02058,
2004-09-27, 00:57:00,VALID,917.578,VALID,0,VALID,100,VALID,0,VALID,19.0932,VALID,16,VALID,0.863459,
2004-09-27, 00:58:00,VALID,917.574,VALID,0,VALID,100,VALID,0,VALID,19.0939,VALID,6,VALID,0.780185,
2004-09-27, 00:59:00,VALID,917.569,VALID,0,VALID,100,VALID,0,VALID,19.0807,VALID,360,VALID,0.770647,
2004-09-27, 01:00:00,VALID,917.562,VALID,0,VALID,100,VALID,0.0169808,VALID,19.0644,VALID,3,VALID,0.447574,
2004-09-27, 01:01:00,VALID,917.559,VALID,0,VALID,100,VALID,0.0339617,VALID,19.0512,VALID,3,VALID,0.181686,
2004-09-27, 01:02:00,VALID,917.552,VALID,0,VALID,100,VALID,0.0169808,VALID,19.0584,VALID,3,VALID,0.154154,
2004-09-27, 01:03:00,VALID,917.543,VALID,0,VALID,100,VALID,0,VALID,19.0581,VALID,3,VALID,0.313262,
2004-09-27, 01:04:00,VALID,917.532,VALID,0,VALID,100,VALID,0.0169808,VALID,19.0549,VALID,12,VALID,0.526867,
2004-09-27, 01:05:00,VALID,917.525,VALID,0,VALID,100,VALID,-0.0169808,VALID,19.0579,VALID,16,VALID,0.6875,
2004-09-27, 01:06:00,VALID,917.509,VALID,0,VALID,100,VALID,-0.0169808,VALID,19.0514,VALID,18,VALID,0.644345,
2004-09-27, 01:07:00,VALID,917.505,VALID,0,VALID,100,VALID,0.0169808,VALID,19.0452,VALID,27,VALID,0.59266,
2004-09-27, 01:08:00,VALID,917.494,VALID,0,VALID,100,VALID,-0.0169808,VALID,19.0355,VALID,24,VALID,0.678267,
2004-09-27, 01:09:00,VALID,917.473,VALID,0,VALID,100,VALID,0,VALID,19.0293,VALID,9,VALID,0.847317,
2004-09-27, 01:10:00,VALID,917.464,VALID,0,VALID,100,VALID,0,VALID,19.0325,VALID,6,VALID,1.04402,
2004-09-27, 01:11:00,VALID,917.448,VALID,0,VALID,100,VALID,0,VALID,19.0125,VALID,10,VALID,0.755859,
2004-09-27, 01:12:00,VALID,917.425,VALID,0,VALID,100,VALID,0,VALID,18.9968,VALID,24,VALID,0.968932,
2004-09-27, 01:13:00,VALID,917.402,VALID,0,VALID,100,VALID,0.0169808,VALID,18.9871,VALID,36,VALID,1.08685,
2004-09-27, 01:14:00,VALID,917.391,VALID,0,VALID,100,VALID,0,VALID,18.971,VALID,46,VALID,0.970348,
2004-09-27, 01:15:00,VALID,917.371,VALID,0,VALID,100,VALID,0,VALID,18.9744,VALID,46,VALID,1.04334,
2004-09-27, 01:16:00,VALID,917.364,VALID,0,VALID,100,VALID,0,VALID,18.968,VALID,41,VALID,0.813227,
2004-09-27, 01:17:00,VALID,917.37,VALID,0,VALID,100,VALID,0,VALID,18.9613,VALID,46,VALID,0.801639,
2004-09-27, 01:18:00,VALID,917.376,VALID,0,VALID,100,VALID,0.0169808,VALID,18.9543,VALID,60,VALID,0.775618,
2004-09-27, 01:19:00,VALID,917.392,VALID,0,VALID,100,VALID,0.0169808,VALID,18.9712,VALID,52,VALID,0.594105,
2004-09-27, 01:20:00,VALID,917.393,VALID,0,VALID,100,VALID,0.0169808,VALID,18.9484,VALID,34,VALID,0.733422,
2004-09-27, 01:21:00,VALID,917.394,VALID,0,VALID,100,VALID,-0.0169808,VALID,18.9486,VALID,29,VALID,0.999645,
2004-09-27, 01:22:00,VALID,917.397,VALID,0,VALID,100,VALID,0,VALID,18.9389,VALID,42,VALID,0.526708,
2004-09-27, 01:23:00,VALID,917.402,VALID,0,VALID,100,VALID,0,VALID,18.926,VALID,83,VALID,0.634629,
2004-09-27, 01:24:00,VALID,917.388,VALID,0,VALID,100,VALID,-0.0169808,VALID,18.9094,VALID,104,VALID,0.74673,
2004-09-27, 01:25:00,VALID,917.38,VALID,0,VALID,100,VALID,0,VALID,18.8967,VALID,114,VALID,0.803013,
2004-09-27, 01:26:00,VALID,917.355,VALID,0,VALID,100,VALID,0.0169808,VALID,18.8932,VALID,117,VALID,0.628906,
2004-09-27, 01:27:00,VALID,917.337,VALID,0,VALID,100,VALID,0.0339617,VALID,18.89,VALID,127,VALID,0.847479,
2004-09-27, 01:28:00,VALID,917.32,VALID,0,VALID,100,VALID,0.0169808,VALID,18.8798,VALID,125,VALID,0.76598,
2004-09-27, 01:29:00,VALID,917.306,VALID,0,VALID,100,VALID,0.0679233,VALID,18.887,VALID,117,VALID,0.785342,
2004-09-27, 01:30:00,VALID,917.289,VALID,0,VALID,100,VALID,0.0679233,VALID,18.8672,VALID,93,VALID,0.387607,
2004-09-27, 01:31:00,VALID,917.275,VALID,0,VALID,100,VALID,0.0339617,VALID,18.8478,VALID,91,VALID,0.34157,
2004-09-27, 01:32:00,VALID,917.254,VALID,0,VALID,100,VALID,0.0509425,VALID,18.845,VALID,91,VALID,0.0383185,
2004-09-27, 01:33:00,VALID,917.253,VALID,0,VALID,100,VALID,0.0169808,VALID,18.845,VALID,91,VALID,0.00053267,
2004-09-27, 01:34:00,VALID,917.243,VALID,0,VALID,100,VALID,0.0169808,VALID,18.8287,VALID,91,VALID,0.000372024,
2004-09-27, 01:35:00,VALID,917.236,VALID,0,VALID,100,VALID,0,VALID,18.8319,VALID,91,VALID,0,
2004-09-27, 01:36:00,VALID,917.229,VALID,0,VALID,100,VALID,0.0339617,VALID,18.8257,VALID,91,VALID,0,
2004-09-27, 01:37:00,VALID,917.208,VALID,0,VALID,100,VALID,0.0339617,VALID,18.816,VALID,91,VALID,0,
2004-09-27, 01:38:00,VALID,917.194,VALID,0,VALID,100,VALID,0,VALID,18.8033,VALID,91,VALID,0,
2004-09-27, 01:39:00,VALID,917.184,VALID,0,VALID,100,VALID,0.0169808,VALID,18.8003,VALID,91,VALID,0.0091712,
2004-09-27, 01:40:00,VALID,917.173,VALID,0,VALID,100,VALID,0.0169808,VALID,18.7934,VALID,91,VALID,0.230196,
2004-09-27, 01:41:00,VALID,917.166,VALID,0,VALID,100,VALID,0.0169808,VALID,18.7842,VALID,91,VALID,0.0838542,
2004-09-27, 01:42:00,VALID,917.167,VALID,0,VALID,100,VALID,0.0339617,VALID,18.7742,VALID,91,VALID,0,
2004-09-27, 01:43:00,VALID,917.16,VALID,0,VALID,100,VALID,0,VALID,18.7549,VALID,91,VALID,0,
2004-09-27, 01:44:00,VALID,917.152,VALID,0,VALID,100,VALID,0.0169808,VALID,18.7124,VALID,91,VALID,0,
2004-09-27, 01:45:00,VALID,917.14,VALID,0,VALID,100,VALID,0.0169808,VALID,18.7122,VALID,79,VALID,0.0534157,
2004-09-27, 01:46:00,VALID,917.122,VALID,0,VALID,100,VALID,0.0509425,VALID,18.7417,VALID,52,VALID,0,
2004-09-27, 01:47:00,VALID,917.123,VALID,0,VALID,100,VALID,0.0169808,VALID,18.7387,VALID,52,VALID,0,
2004-09-27, 01:48:00,VALID,917.122,VALID,0,VALID,100,VALID,0.0169808,VALID,18.729,VALID,52,VALID,0,
2004-09-27, 01:49:00,VALID,917.113,VALID,0,VALID,100,VALID,0.0169808,VALID,18.706,VALID,52,VALID,0,
2004-09-27, 01:50:00,VALID,917.107,VALID,0,VALID,100,VALID,0,VALID,18.7099,VALID,52,VALID,0,
2004-09-27, 01:51:00,VALID,917.099,VALID,0,VALID,100,VALID,0,VALID,18.6938,VALID,50,VALID,0,
2004-09-27, 01:52:00,VALID,917.084,VALID,0,VALID,100,VALID,0.0339617,VALID,18.6995,VALID,36,VALID,0,
2004-09-27, 01:53:00,VALID,917.073,VALID,0,VALID,100,VALID,0.0339617,VALID,18.7353,VALID,15,VALID,0,
2004-09-27, 01:54:00,VALID,917.052,VALID,0,VALID,100,VALID,0,VALID,18.7648,VALID,13,VALID,0,
2004-09-27, 01:55:00,VALID,917.026,VALID,0,VALID,100,VALID,0.0339617,VALID,18.7738,VALID,13,VALID,0,
2004-09-27, 01:56:00,VALID,917.001,VALID,0,VALID,100,VALID,0.0169808,VALID,18.7936,VALID,13,VALID,0,
2004-09-27, 01:57:00,VALID,916.978,VALID,0,VALID,100,VALID,0,VALID,18.7807,VALID,13,VALID,0,
2004-09-27, 01:58:00,VALID,916.97,VALID,0,VALID,100,VALID,0.0509425,VALID,18.7715,VALID,13,VALID,0,
2004-09-27, 01:59:00,VALID,916.965,VALID,0,VALID,100,VALID,0,VALID,18.7353,VALID,13,VALID,0,
2004-09-27, 02:00:00,VALID,916.965,VALID,0,VALID,100,VALID,0.0169808,VALID,18.6642,VALID,13,VALID,0,
2004-09-27, 02:01:00,VALID,916.959,VALID,0,VALID,100,VALID,0.0339617,VALID,18.6262,VALID,13,VALID,0,
2004-09-27, 02:02:00,VALID,916.954,VALID,0,VALID,100,VALID,0.0169808,VALID,18.6416,VALID,13,VALID,0,
2004-09-27, 02:03:00,VALID,916.949,VALID,0,VALID,100,VALID,0,VALID,18.6317,VALID,31,VALID,0.228277,
2004-09-27, 02:04:00,VALID,916.933,VALID,0,VALID,100,VALID,0.0509425,VALID,18.6354,VALID,52,VALID,0.797045,
2004-09-27, 02:05:00,VALID,916.919,VALID,0,VALID,100,VALID,0,VALID,18.629,VALID,46,VALID,1.12402,
2004-09-27, 02:06:00,VALID,916.925,VALID,0,VALID,100,VALID,0.0339617,VALID,18.622,VALID,36,VALID,0.919331,
2004-09-27, 02:07:00,VALID,916.93,VALID,0,VALID,100,VALID,0,VALID,18.5842,VALID,19,VALID,0.469113,
2004-09-27, 02:08:00,VALID,916.936,VALID,0,VALID,100,VALID,0.0339617,VALID,18.5549,VALID,16,VALID,0.211554,
2004-09-27, 02:09:00,VALID,916.917,VALID,0,VALID,100,VALID,0.0169808,VALID,18.584,VALID,16,VALID,0,
2004-09-27, 02:10:00,VALID,916.909,VALID,0,VALID,100,VALID,-0.0339617,VALID,18.6045,VALID,16,VALID,0,
2004-09-27, 02:11:00,VALID,916.902,VALID,0,VALID,100,VALID,-0.0339617,VALID,18.5974,VALID,16,VALID,0.00835756,
2004-09-27, 02:12:00,VALID,916.914,VALID,0,VALID,100,VALID,0,VALID,18.5745,VALID,16,VALID,0.0163194,
2004-09-27, 02:13:00,VALID,916.909,VALID,0,VALID,100,VALID,0,VALID,18.5616,VALID,291,VALID,0.450763,
2004-09-27, 02:14:00,VALID,916.908,VALID,0,VALID,100,VALID,0,VALID,18.6041,VALID,291,VALID,0.0181108,
2004-09-27, 02:15:00,VALID,916.895,VALID,0,VALID,100,VALID,-0.0169808,VALID,18.62,VALID,291,VALID,0,
2004-09-27, 02:16:00,VALID,916.871,VALID,0,VALID,100,VALID,0,VALID,18.62,VALID,291,VALID,0.000347222,
2004-09-27, 02:17:00,VALID,916.846,VALID,0,VALID,100,VALID,-0.0339617,VALID,18.6366,VALID,347,VALID,0.261549,
2004-09-27, 02:18:00,VALID,916.83,VALID,0,VALID,100,VALID,-0.0339617,VALID,18.6108,VALID,359,VALID,0.373935,
2004-09-27, 02:19:00,VALID,916.834,VALID,0,VALID,100,VALID,-0.0169808,VALID,18.6043,VALID,359,VALID,0.151414,
2004-09-27, 02:20:00,VALID,916.828,VALID,0,VALID,100,VALID,0,VALID,18.5427,VALID,359,VALID,0,
2004-09-27, 02:21:00,VALID,916.815,VALID,0,VALID,100,VALID,-0.0169808,VALID,18.4876,VALID,359,VALID,0,
2004-09-27, 02:22:00,VALID,916.8,VALID,0,VALID,100,VALID,-0.0339617,VALID,18.5298,VALID,359,VALID,0,
2004-09-27, 02:23:00,VALID,916.789,VALID,0,VALID,100,VALID,0,VALID,18.5333,VALID,359,VALID,0.093936,
2004-09-27, 02:24:00,VALID,916.792,VALID,0,VALID,100,VALID,0,VALID,18.5204,VALID,359,VALID,0.215402,
2004-09-27, 02:25:00,VALID,916.791,VALID,0,VALID,100,VALID,0,VALID,18.5294,VALID,359,VALID,0.269531,
2004-09-27, 02:26:00,VALID,916.796,VALID,0,VALID,100,VALID,-0.0509425,VALID,18.5259,VALID,359,VALID,0.0786577,
2004-09-27, 02:27:00,VALID,916.783,VALID,0,VALID,100,VALID,-0.0339617,VALID,18.5556,VALID,359,VALID,0.0363372,
2004-09-27, 02:28:00,VALID,916.783,VALID,0,VALID,100,VALID,-0.0169808,VALID,18.5395,VALID,359,VALID,0.0955669,
2004-09-27, 02:29:00,VALID,916.779,VALID,0,VALID,100,VALID,-0.0169808,VALID,18.5206,VALID,359,VALID,0.208705,
2004-09-27, 02:30:00,VALID,916.762,VALID,0,VALID,100,VALID,0,VALID,18.4943,VALID,359,VALID,0.191778,
2004-09-27, 02:31:00,VALID,916.76,VALID,0,VALID,100,VALID,0,VALID,18.4749,VALID,359,VALID,0.118862,
2004-09-27, 02:32:00,VALID,916.757,VALID,0,VALID,100,VALID,0,VALID,18.4459,VALID,359,VALID,0,
2004-09-27, 02:33:00,VALID,916.757,VALID,0,VALID,100,VALID,0,VALID,18.4362,VALID,359,VALID,0,
2004-09-27, 02:34:00,VALID,916.755,VALID,0,VALID,100,VALID,-0.0169808,VALID,18.43,VALID,359,VALID,0,
2004-09-27, 02:35:00,VALID,916.746,VALID,0,VALID,100,VALID,0,VALID,18.4297,VALID,359,VALID,0,
2004-09-27, 02:36:00,VALID,916.732,VALID,0,VALID,100,VALID,-0.0339617,VALID,18.4456,VALID,359,VALID,0,
2004-09-27, 02:37:00,VALID,916.721,VALID,0,VALID,100,VALID,0,VALID,18.4775,VALID,359,VALID,0,
2004-09-27, 02:38:00,VALID,916.721,VALID,0,VALID,100,VALID,-0.0169808,VALID,18.5363,VALID,359,VALID,0.0991443,
2004-09-27, 02:39:00,VALID,916.706,VALID,0,VALID,100,VALID,-0.0339617,VALID,18.5718,VALID,359,VALID,0.355196,
2004-09-27, 02:40:00,VALID,916.69,VALID,0,VALID,100,VALID,-0.0339617,VALID,18.5752,VALID,6,VALID,0.292597,
2004-09-27, 02:41:00,VALID,916.668,VALID,0,VALID,100,VALID,0.0679233,VALID,18.5321,VALID,35,VALID,0.605283,
2004-09-27, 02:42:00,VALID,916.648,VALID,0,VALID,100,VALID,0.101885,VALID,18.4964,VALID,40,VALID,0.732515,
2004-09-27, 02:43:00,VALID,916.654,VALID,0,VALID,100,VALID,0.101885,VALID,18.4994,VALID,41,VALID,0.617932,
2004-09-27, 02:44:00,VALID,916.658,VALID,0,VALID,100,VALID,0.0849042,VALID,18.4703,VALID,31,VALID,0.373633,
2004-09-27, 02:45:00,VALID,916.665,VALID,0,VALID,100,VALID,0.101885,VALID,18.4408,VALID,29,VALID,0.410866,
2004-09-27, 02:46:00,VALID,916.673,VALID,0,VALID,100,VALID,0.0849042,VALID,18.4318,VALID,29,VALID,0.451172,
2004-09-27, 02:47:00,VALID,916.67,VALID,0,VALID,100,VALID,0.0509425,VALID,18.4221,VALID,29,VALID,0.732922,
2004-09-27, 02:48:00,VALID,916.685,VALID,0,VALID,100,VALID,0.0679233,VALID,18.4117,VALID,29,VALID,0.900977,
2004-09-27, 02:49:00,VALID,916.68,VALID,0,VALID,100,VALID,0.0339617,VALID,18.4445,VALID,32,VALID,0.333757,
2004-09-27, 02:50:00,VALID,916.68,VALID,0,VALID,100,VALID,0.0679233,VALID,18.4897,VALID,27,VALID,0.527244,
2004-09-27, 02:51:00,VALID,916.677,VALID,0,VALID,100,VALID,0.0849042,VALID,18.5061,VALID,25,VALID,0.412946,
2004-09-27, 02:52:00,VALID,916.655,VALID,0,VALID,100,VALID,0.0339617,VALID,18.5155,VALID,25,VALID,0.339134,
2004-09-27, 02:53:00,VALID,916.642,VALID,0,VALID,100,VALID,0.0509425,VALID,18.5443,VALID,25,VALID,0.20348,
2004-09-27, 02:54:00,VALID,916.645,VALID,0,VALID,100,VALID,0.0509425,VALID,18.5771,VALID,25,VALID,0,
2004-09-27, 02:55:00,VALID,916.633,VALID,0,VALID,100,VALID,0.0849042,VALID,18.5798,VALID,25,VALID,0.00101902,
2004-09-27, 02:56:00,VALID,916.635,VALID,0,VALID,100,VALID,0.0339617,VALID,18.5905,VALID,25,VALID,0,
2004-09-27, 02:57:00,VALID,916.627,VALID,0,VALID,100,VALID,-0.0339617,VALID,18.5815,VALID,25,VALID,0.218217,
2004-09-27, 02:58:00,VALID,916.634,VALID,0,VALID,100,VALID,0,VALID,18.5842,VALID,22,VALID,0.529652,
2004-09-27, 02:59:00,VALID,916.623,VALID,0,VALID,100,VALID,0,VALID,18.6108,VALID,16,VALID,0.241211,
2004-09-27, 03:00:00,VALID,916.603,VALID,0,VALID,100,VALID,-0.0339617,VALID,18.6172,VALID,16,VALID,0,
2004-09-27, 03:01:00,VALID,916.594,VALID,0,VALID,100,VALID,0,VALID,18.6103,VALID,16,VALID,0,
2004-09-27, 03:02:00,VALID,916.582,VALID,0,VALID,100,VALID,-0.0509425,VALID,18.6264,VALID,16,VALID,0,
2004-09-27, 03:03:00,VALID,916.579,VALID,0,VALID,100,VALID,-0.0339617,VALID,18.6431,VALID,15,VALID,0.0740412,
2004-09-27, 03:04:00,VALID,916.556,VALID,0,VALID,100,VALID,0,VALID,18.6779,VALID,8,VALID,0.0844494,
2004-09-27, 03:05:00,VALID,916.537,VALID,0,VALID,100,VALID,0,VALID,18.7037,VALID,8,VALID,0,
2004-09-27, 03:06:00,VALID,916.522,VALID,0,VALID,100,VALID,0,VALID,18.7332,VALID,10,VALID,0.0759171,
2004-09-27, 03:07:00,VALID,916.526,VALID,0,VALID,100,VALID,-0.0679233,VALID,18.7429,VALID,31,VALID,0.361683,
2004-09-27, 03:08:00,VALID,916.519,VALID,0,VALID,100,VALID,-0.0169808,VALID,18.7364,VALID,30,VALID,0,
2004-09-27, 03:09:00,VALID,916.516,VALID,0,VALID,100,VALID,-0.0169808,VALID,18.6938,VALID,346,VALID,0,
2004-09-27, 03:10:00,VALID,916.51,VALID,0,VALID,100,VALID,-0.0169808,VALID,18.7007,VALID,295,VALID,0,
2004-09-27, 03:11:00,VALID,916.493,VALID,0,VALID,100,VALID,0.0509425,VALID,18.7134,VALID,314,VALID,0.014881,
2004-09-27, 03:12:00,VALID,916.48,VALID,0,VALID,100,VALID,0.0679233,VALID,18.6866,VALID,2,VALID,0.333576,
2004-09-27, 03:13:00,VALID,916.473,VALID,0,VALID,100,VALID,0.0849042,VALID,18.667,VALID,21,VALID,1.10737,
2004-09-27, 03:14:00,VALID,916.463,VALID,0,VALID,100,VALID,0.0679233,VALID,18.6414,VALID,19,VALID,1.2326,
2004-09-27, 03:15:00,VALID,916.452,VALID,0,VALID,100,VALID,0.0849042,VALID,18.6513,VALID,16,VALID,0.922828,
2004-09-27, 03:16:00,VALID,916.446,VALID,0,VALID,100,VALID,0.0339617,VALID,18.6384,VALID,8,VALID,0.662202,
2004-09-27, 03:17:00,VALID,916.446,VALID,0,VALID,100,VALID,0.0849042,VALID,18.6287,VALID,8,VALID,0.517078,
2004-09-27, 03:18:00,VALID,916.424,VALID,0,VALID,100,VALID,0.0679233,VALID,18.6253,VALID,5,VALID,0.537609,
2004-09-27, 03:19:00,VALID,916.416,VALID,0,VALID,100,VALID,0.0679233,VALID,18.6546,VALID,18,VALID,0.948153,
2004-09-27, 03:20:00,VALID,916.402,VALID,0,VALID,100,VALID,0.0679233,VALID,18.6543,VALID,32,VALID,0.835258,
2004-09-27, 03:21:00,VALID,916.401,VALID,0,VALID,100,VALID,0.0679233,VALID,18.6769,VALID,31,VALID,0.663681,
2004-09-27, 03:22:00,VALID,916.389,VALID,0,VALID,100,VALID,0.0509425,VALID,18.6868,VALID,38,VALID,0.40189,
2004-09-27, 03:23:00,VALID,916.388,VALID,0,VALID,100,VALID,0.0509425,VALID,18.6797,VALID,39,VALID,0,
2004-09-27, 03:24:00,VALID,916.378,VALID,0,VALID,100,VALID,0.0339617,VALID,18.6705,VALID,42,VALID,0,
2004-09-27, 03:25:00,VALID,916.384,VALID,0,VALID,100,VALID,0.0679233,VALID,18.6126,VALID,117,VALID,0,
2004-09-27, 03:26:00,VALID,916.378,VALID,0,VALID,100,VALID,0,VALID,18.5812,VALID,117,VALID,0,
2004-09-27, 03:27:00,VALID,916.369,VALID,0,VALID,100,VALID,0,VALID,18.5559,VALID,119,VALID,0.122713,
2004-09-27, 03:28:00,VALID,916.365,VALID,0,VALID,100,VALID,-0.0339617,VALID,18.536,VALID,128,VALID,0.00443892,
2004-09-27, 03:29:00,VALID,916.341,VALID,0,VALID,100,VALID,-0.0169808,VALID,18.5268,VALID,128,VALID,0,
2004-09-27, 03:30:00,VALID,916.336,VALID,0,VALID,100,VALID,0,VALID,18.5171,VALID,127,VALID,0,
2004-09-27, 03:31:00,VALID,916.317,VALID,0,VALID,100,VALID,-0.0169808,VALID,18.5042,VALID,105,VALID,0,
2004-09-27, 03:32:00,VALID,916.299,VALID,0,VALID,100,VALID,-0.0339617,VALID,18.4233,VALID,56,VALID,0,
2004-09-27, 03:33:00,VALID,916.289,VALID,0,VALID,100,VALID,-0.0169808,VALID,18.3421,VALID,55,VALID,0,
2004-09-27, 03:34:00,VALID,916.278,VALID,0,VALID,100,VALID,-0.0169808,VALID,18.2941,VALID,55,VALID,0,
2004-09-27, 03:35:00,VALID,916.261,VALID,0,VALID,100,VALID,0,VALID,18.2815,VALID,55,VALID,0.0408381,
2004-09-27, 03:36:00,VALID,916.26,VALID,0,VALID,100,VALID,-0.0339617,VALID,18.3137,VALID,53,VALID,0.210565,
2004-09-27, 03:37:00,VALID,916.252,VALID,0,VALID,100,VALID,-0.0169808,VALID,18.3587,VALID,51,VALID,0.0849848,
2004-09-27, 03:38:00,VALID,916.261,VALID,0,VALID,100,VALID,0,VALID,18.4009,VALID,51,VALID,0,
2004-09-27, 03:39:00,VALID,916.261,VALID,0,VALID,100,VALID,0,VALID,18.4491,VALID,51,VALID,0,
2004-09-27, 03:40:00,VALID,916.26,VALID,0,VALID,100,VALID,-0.0169808,VALID,18.5008,VALID,51,VALID,0.00177557,
2004-09-27, 03:41:00,VALID,916.258,VALID,0,VALID,100,VALID,0,VALID,18.5457,VALID,59,VALID,0.0370245,
2004-09-27, 03:42:00,VALID,916.258,VALID,0,VALID,100,VALID,0,VALID,18.5683,VALID,60,VALID,0,
2004-09-27, 03:43:00,VALID,916.266,VALID,0,VALID,100,VALID,0,VALID,18.5944,VALID,60,VALID,0,
2004-09-27, 03:44:00,VALID,916.265,VALID,0,VALID,100,VALID,0,VALID,18.6068,VALID,60,VALID,0.195313,
2004-09-27, 03:45:00,VALID,916.279,VALID,0,VALID,100,VALID,-0.0339617,VALID,18.6391,VALID,60,VALID,0.42488,
2004-09-27, 03:46:00,VALID,916.294,VALID,0,VALID,100,VALID,-0.0509425,VALID,18.6622,VALID,63,VALID,0.523037,
2004-09-27, 03:47:00,VALID,916.277,VALID,0,VALID,100,VALID,0,VALID,18.6912,VALID,70,VALID,0.491016,